Regional Weather Roundup
Issued by NWS State College, PA

Home | Current Version | Previous Version | Graphics & Text | Print | Product List | Glossary Off
Versions: 1 2 3 4 5 6 7 8 9 10 11 12 13 14 15 16 17 18 19 20 21 22 23 24 25 26 27 28 29 30 31 32 33 34 35 36 37 38 39 40 41 42 43 44 45 46 47 48 49 50

000
ASUS41 KCTP 181310
RWRCTP

REGIONAL WEATHER ROUNDUP
NATIONAL WEATHER SERVICE STATE COLLEGE PA
900 AM EDT FRI APR 18 2014

Note: "fair" indicates few or no clouds below 12,000 feet with no
significant weather and/or obstructions to visibility.

* = STATION THAT DOES NOT REPORT PRECIPITATION /E.G. RAIN...SNOW...ETC/
    THUNDER OR FOG.

PAZ002>004-007>009-013>016-020>023-029>032-181400-
WESTERN PENNSYLVANIA

CITY           SKY/WX    TMP DP  RH WIND       PRES   REMARKS
ERIE           CLOUDY    48  29  47 S18G25    30.28S
MEADVILLE      NOT AVBL
FRANKLIN*      CLOUDY    41  27  56 SE8       30.35S
NEW CASTLE     FAIR      46  29  52 CALM      30.33F
BEAVER COUNTY  SUNNY     45  30  57 SE6       30.32S
BUTLER*        CLOUDY    43  28  56 SE6       30.35S
PITTSBURGH INT CLOUDY    46  30  53 SE7       30.32S
PITTSBURGH     CLOUDY    46  29  51 SE5       30.33S
INDIANA*       CLOUDY    43  30  61 SE5       30.36S
LATROBE        CLOUDY    46  32  57 VRB6      30.35F
WASHINGTON CO* CLOUDY    45  34  65 CALM      30.35R
$$

PAZ004>006-010>012-017>019-024>028-033>037-041-042-045-046-049>053-181400-
CENTRAL PENNSYLVANIA

CITY           SKY/WX    TMP DP  RH WIND       PRES   REMARKS
BRADFORD       PTSUNNY   39  28  64 SE8       30.33F
DUBOIS         PTSUNNY   40  30  67 SE9       30.34F
CLEARFIELD     PTSUNNY   38  32  79 E5        30.39F
JOHNSTOWN      PTSUNNY   36  30  79 S8        30.35F
ALTOONA        PTSUNNY   37  32  82 S5        30.41F
STATE COLLEGE  SUNNY     39  28  65 S6        30.42F
WILLIAMSPORT   MOSUNNY   38  28  67 CALM      30.47F
SELINSGROVE    MOSUNNY   38  29  70 SE8       30.50F
FT INDIANTOWN  PTSUNNY   37  33  86 E3        30.50F
CAPITAL CITY   CLOUDY    38  30  73 E6        30.50F
HARRISBURG     CLOUDY    40  29  64 E7        30.50F
YORK           PTSUNNY   38  30  73 E6        30.49F
$$

PAZ038>040-043-044-047-048-054-055-060>062-067>071-181400-
EASTERN PENNSYLVANIA

CITY           SKY/WX    TMP DP  RH WIND       PRES   REMARKS
SCRANTON       PTSUNNY   37  27  67 VRB3      30.47F
MOUNT POCONO   PTSUNNY   32  27  81 S8        30.43F
ALLENTOWN      CLOUDY    39  28  64 E9        30.52F
QUAKERTOWN*    CLOUDY    37  28  70 SE7       30.52S
READING        CLOUDY    39  28  64 CALM      30.50F
LANCASTER      CLOUDY    38  28  67 E6        30.50F
COATESVILLE    NOT AVBL
POTTSTOWN      CLOUDY    38  29  70 VRB3      30.53F
BLUE BELL      CLOUDY    41  32  70 E5        30.51F
DOYLESTOWN     CLOUDY    37  30  75 SE3       30.51F
WILLOW GROVE   NOT AVBL
NORTH PHILA    CLOUDY    41  28  60 E8        30.55F
PHILADELPHIA   CLOUDY    42  28  57 E8        30.53F
$$



USA.gov is the U.S. government's official web portal to all federal, state and local government web resources and services.